Wind_Speed
17 17 17 18 22 23 20 19 19 18 20 23 25 24 20 17 16 15 14 14 14 14 14 14 14 15 17 19 20 20 20 19 19 19 18 18 18 17 17 17 17 18 18 19 19 19 19 20 20 20 19 18 17 17 18 18 18 18 18 19 20 20 18 17 18 18 18 18 17 18 18 16 16 17 18 20 23 24 26 26 25 25 29 35 40
19 18 19 19 21 22 21 20 19 19 21 24 28 27 21 17 15 14 14 14 14 14 14 14 14 14 15 18 19 19 20 20 20 19 19 18 18 18 18 18 18 18 19 19 20 20 20 20 20 20 20 19 18 18 18 18 19 19 19 20 20 20 19 18 19 18 19 18 17 18 18 18 17 17 17 17 18 20 23 27 27 27 27 31 36
19 19 20 21 20 21 20 18 19 21 22 23 24 23 20 17 15 14 14 15 15 15 14 13 13 14 14 16 17 18 19 20 20 20 19 19 18 18 19 19 19 19 20 20 20 20 20 20 20 20 20 20 19 19 19 19 19 20 20 20 21 21 20 20 19 19 19 19 18 18 19 19 19 19 20 20 19 17 18 21 24 27 29 30 32
18 19 21 22 21 20 18 18 20 23 23 22 21 21 21 19 17 16 15 15 16 16 14 14 13 13 14 16 17 17 17 18 19 19 19 19 18 19 19 19 20 20 20 20 20 20 21 21 21 21 20 20 20 19 19 19 19 20 20 21 22 22 22 21 20 19 19 19 19 19 19 19 19 19 20 21 20 19 17 17 17 21 26 30 32
19 18 19 20 19 17 17 19 21 22 23 22 22 23 24 22 20 18 17 17 17 17 15 14 13 14 14 16 18 18 17 17 18 18 19 19 19 19 19 19 20 20 20 20 19 19 20 21 21 21 20 20 20 19 19 19 19 20 20 21 22 22 22 22 20 20 19 19 19 19 19 19 18 18 20 21 21 20 19 18 17 17 19 23 28
20 17 17 18 17 17 17 18 20 21 21 20 21 23 25 26 24 21 19 19 19 18 16 14 13 13 14 16 17 18 17 17 17 17 18 18 19 19 19 20 20 20 20 19 19 18 19 20 20 20 20 20 20 20 19 19 20 20 20 21 22 22 22 22 21 21 21 20 20 20 20 19 19 19 20 21 21 21 20 19 18 18 17 17 18
21 18 18 18 17 17 17 17 18 19 20 20 20 22 24 25 25 23 21 20 20 20 18 16 14 13 14 15 16 17 18 18 18 17 17 18 19 19 19 20 20 20 19 19 18 18 18 19 19 19 19 19 20 20 19 19 20 20 21 21 22 22 22 22 21 21 21 21 20 21 21 20 19 20 21 21 20 19 19 20 19 18 18 16 15
22 21 20 20 19 19 19 18 17 17 19 20 21 22 23 22 23 23 21 21 21 21 19 17 15 14 14 15 16 17 17 18 18 18 18 18 19 19 19 19 20 19 19 19 18 18 18 18 18 19 19 19 19 19 19 19 20 20 20 21 21 21 21 21 21 21 22 21 20 20 21 21 20 20 21 21 20 19 19 19 18 18 16 14 13
25 23 21 19 19 21 20 19 18 18 20 21 22 22 22 23 24 23 22 22 22 21 21 20 17 15 15 15 16 17 18 18 19 19 19 20 19 19 19 19 19 19 18 18 18 18 18 18 18 18 18 18 18 18 18 18 19 20 20 20 20 20 21 21 21 21 21 21 20 20 21 21 20 21 22 23 23 23 21 19 19 19 18 17 18
23 21 20 19 18 18 18 19 20 20 20 20 22 22 22 24 26 25 25 25 24 23 23 22 21 18 16 15 16 18 19 19 19 20 20 20 20 19 19 18 18 18 18 17 17 17 17 17 18 18 17 17 17 17 17 17 18 19 19 19 18 19 19 20 20 20 21 21 20 20 20 20 20 21 23 24 25 25 25 23 23 23 23 23 24
21 20 21 19 17 18 20 21 21 20 20 20 22 22 22 23 27 31 30 27 26 25 25 25 24 21 18 16 17 19 20 20 20 20 20 20 20 19 19 18 18 17 17 17 16 16 15 16 16 16 16 16 16 16 17 17 17 17 17 17 17 17 17 18 18 18 19 19 19 19 20 20 20 21 22 24 25 26 25 24 24 25 25 25 25
23 22 20 17 16 18 21 22 22 22 22 22 23 24 25 25 29 33 30 26 26 27 26 26 26 24 20 17 17 20 21 21 21 20 20 20 20 19 18 18 18 17 17 17 16 16 15 15 15 16 16 16 16 16 16 16 16 16 16 16 16 16 16 16 16 17 17 17 18 18 19 20 20 20 22 23 24 24 24 23 23 23 24 24 24
23 21 19 20 20 21 21 22 23 24 24 25 25 26 27 28 31 32 27 23 26 27 26 27 27 26 24 20 19 20 21 21 21 20 20 20 20 19 17 17 17 17 17 17 17 16 16 15 15 15 16 16 16 15 15 15 16 16 16 16 15 15 15 15 15 15 15 15 16 16 17 18 19 19 20 22 23 23 23 23 22 22 22 22 23
22 21 22 25 26 24 23 23 23 25 26 27 27 27 28 30 32 32 31 25 25 27 26 27 29 29 27 24 22 22 22 21 21 20 19 19 19 18 17 16 17 17 17 17 16 16 16 16 15 15 15 15 15 16 15 15 15 15 16 16 15 15 15 15 15 15 15 14 15 15 15 16 17 18 19 20 21 21 22 21 21 21 21 22 22
20 20 22 26 26 26 27 26 26 26 27 28 28 28 28 30 31 31 34 27 23 27 29 29 30 30 29 27 25 24 23 21 21 19 18 18 18 17 16 17 17 17 17 17 17 16 16 16 16 16 15 15 15 15 15 16 16 15 15 15 15 14 14 14 14 15 15 15 14 14 14 15 15 16 17 17 19 19 20 20 20 20 20 21 21
18 21 24 26 25 26 27 27 27 27 27 28 29 27 27 31 33 31 32 30 29 31 32 31 31 31 31 29 26 26 24 21 20 19 17 16 16 15 15 16 17 17 17 17 17 17 17 17 17 17 16 16 16 16 16 16 16 16 16 16 15 15 14 14 14 14 14 14 15 14 14 14 15 15 16 16 16 17 17 18 18 19 19 19 20
23 26 27 26 25 26 26 26 27 27 27 28 28 27 27 29 32 33 32 31 28 27 29 31 31 31 32 30 27 26 25 22 20 19 17 16 15 15 15 16 17 17 16 17 17 17 17 17 17 17 17 17 16 16 16 16 16 16 16 16 16 16 15 15 14 14 14 14 14 14 14 14 14 15 15 15 15 15 15 16 16 17 17 17 18
25 26 26 26 25 25 25 25 25 26 27 28 29 30 30 28 29 29 29 28 27 27 29 31 31 32 33 32 28 26 24 22 20 20 19 17 15 15 16 16 16 16 16 16 16 16 16 17 17 17 17 17 16 16 16 16 16 16 17 17 17 17 17 16 16 15 14 14 14 13 14 13 13 14 14 15 14 14 14 14 14 15 15 16 16
23 23 23 23 22 22 22 23 23 24 25 27 28 30 30 30 29 28 30 31 30 27 27 28 31 32 33 34 30 25 23 22 21 21 20 18 17 16 17 17 17 16 16 16 15 15 16 16 16 17 17 17 16 16 15 15 16 16 17 17 18 18 18 18 18 17 16 16 15 14 14 14 13 13 13 14 14 14 13 13 13 14 15 15 16
19 20 20 20 20 21 21 22 23 24 24 24 25 26 27 29 29 29 32 34 32 28 27 27 28 29 32 35 30 22 20 21 23 23 21 18 17 17 16 17 18 18 18 17 17 16 16 17 17 17 17 17 16 16 16 16 16 16 17 18 18 19 19 20 19 19 18 18 17 16 15 15 14 14 14 14 14 15 15 14 14 14 15 15 16
18 19 20 21 22 22 22 23 23 24 24 23 24 25 25 26 28 29 32 34 34 33 31 29 28 27 29 30 28 23 19 18 20 23 22 19 17 18 17 17 18 19 18 19 19 19 18 18 18 18 18 17 17 17 17 17 17 17 17 17 18 19 19 20 20 20 20 19 18 18 17 16 16 16 16 16 16 16 17 17 16 16 16 17 17
20 21 23 23 23 23 23 23 23 24 25 25 25 26 26 26 28 29 31 33 34 34 34 32 31 29 28 26 26 26 25 23 24 23 22 20 19 19 19 19 19 20 19 20 20 21 21 21 21 21 21 20 19 19 19 19 19 19 19 18 18 18 18 19 19 20 20 20 20 20 19 18 18 18 18 18 18 18 19 19 19 19 19 19 19
25 25 25 25 26 26 25 25 26 26 27 28 29 29 29 28 29 30 31 33 35 35 36 35 33 33 32 29 27 27 29 32 34 31 27 25 23 22 22 22 22 22 21 22 22 21 21 22 23 23 22 22 22 21 21 21 21 21 21 20 19 18 18 18 18 19 19 19 19 19 20 20 20 20 20 20 20 20 21 21 21 21 21 21 21
29 29 29 28 28 28 27 27 27 28 29 30 31 31 31 31 31 31 31 33 35 36 37 37 36 35 34 32 32 31 30 33 36 36 33 31 29 27 26 26 26 25 25 26 26 24 23 23 24 23 23 23 23 23 24 26 25 24 23 23 22 20 19 19 19 19 18 18 18 18 18 19 20 20 21 21 22 22 23 23 23 23 23 23 24
30 31 31 31 31 29 29 29 30 31 31 32 33 33 33 34 33 33 33 33 35 36 37 38 38 36 34 33 34 35 35 35 35 35 35 34 32 29 27 28 28 28 28 28 28 27 26 26 26 26 26 25 25 25 26 26 26 26 25 24 24 24 22 21 21 21 20 19 20 19 19 20 20 21 21 21 22 22 23 24 24 25 25 25 26
30 30 30 30 30 30 31 32 33 34 34 35 35 35 35 36 36 36 36 35 35 36 37 38 39 39 38 36 35 35 36 36 36 35 34 33 31 29 28 28 28 28 28 27 26 27 29 29 29 29 28 28 28 28 28 27 26 26 26 25 26 26 26 25 24 24 23 22 22 22 22 22 22 23 24 24 24 24 24 25 25 25 26 26 27
30 32 32 32 33 33 34 35 35 36 36 37 38 38 38 38 38 38 38 38 38 38 38 39 39 40 40 39 37 36 35 35 35 35 35 33 32 30 31 31 30 29 29 29 29 30 31 30 29 29 29 29 30 30 30 29 27 26 27 27 28 29 29 29 27 26 26 25 26 26 26 26 27 27 27 27 27 28 28 28 28 28 28 29 29
32 33 33 34 35 36 37 38 38 37 37 37 37 39 39 39 39 40 40 40 41 41 41 41 41 41 42 42 41 40 39 38 37 37 37 36 35 34 34 34 34 33 33 33 33 33 32 30 30 31 31 31 31 31 31 30 28 28 27 25 26 28 30 30 29 28 29 29 29 30 31 31 32 32 32 32 32 31 31 32 32 32 32 32 32
35 33 33 34 36 39 40 40 41 40 39 38 37 37 38 39 41 42 42 43 43 44 44 44 44 44 44 44 44 44 44 43 42 41 40 40 39 39 39 38 38 38 38 38 38 37 37 36 37 38 37 35 34 35 37 36 33 31 28 24 25 27 28 29 29 29 29 30 30 32 33 34 35 35 36 36 36 36 36 36 35 35 35 35 35
39 37 36 37 37 38 40 42 43 43 42 42 40 39 38 39 39 41 42 44 45 46 47 47 47 47 47 47 47 47 47 47 47 47 46 45 45 44 44 43 43 42 41 41 41 41 42 42 42 41 40 39 39 39 40 40 38 37 36 36 38 38 35 33 32 32 32 32 33 34 35 36 36 37 38 39 39 39 39 39 40 39 39 39 38
48 47 45 44 43 41 41 42 44 45 45 45 44 42 40 39 39 39 40 42 44 46 48 50 50 50 50 50 50 50 50 50 51 51 51 51 50 50 50 50 49 48 47 46 45 45 45 45 44 44 43 43 43 42 43 43 43 43 44 46 47 46 44 41 39 38 37 38 39 39 39 39 39 39 40 40 41 41 42 42 43 43 42 43 43
53 53 53 52 51 49 47 45 45 46 48 48 45 43 41 41 41 41 40 39 40 42 45 48 51 52 53 53 53 53 53 54 54 55 55 55 55 55 55 54 53 53 52 52 51 50 49 48 47 46 46 46 46 46 46 46 46 46 46 46 46 46 46 45 43 42 40 39 41 42 43 43 43 43 43 43 43 44 44 45 46 45 45 45 46
49 51 53 54 54 55 54 50 47 46 46 45 44 44 44 44 44 44 42 42 42 43 44 45 48 50 53 54 54 54 55 56 56 57 58 58 58 58 58 58 57 56 55 55 54 53 52 51 49 48 47 47 47 47 48 48 48 47 47 47 46 46 46 45 45 44 42 41 43 44 45 46 46 46 46 47 47 47 49 50 50 49 49 49 49
50 52 54 54 54 55 55 52 48 46 44 43 44 46 47 47 46 45 44 45 46 46 47 46 46 47 48 50 51 52 52 53 54 55 57 57 58 58 59 59 59 59 58 58 57 55 54 53 51 50 49 49 48 47 47 47 48 47 47 46 47 47 46 45 45 45 43 43 44 45 46 47 47 48 48 49 49 50 51 52 52 53 53 54 54
51 51 50 52 53 54 54 54 53 52 51 50 50 50 49 47 46 46 47 48 48 48 48 48 48 48 49 49 50 50 50 50 51 53 54 54 55 55 56 56 57 56 57 57 57 57 55 54 53 52 51 51 50 48 46 45 46 46 46 46 46 46 47 47 48 48 47 46 46 47 48 49 50 50 51 51 52 53 53 54 54 54 55 56 56
49 47 45 45 49 51 52 53 53 53 54 54 54 53 51 49 48 48 50 50 50 50 49 49 50 51 52 53 53 53 52 52 51 51 52 52 52 53 53 53 53 53 54 54 55 55 55 54 53 52 51 50 50 49 49 49 49 48 49 49 49 49 50 50 51 52 52 52 51 50 51 52 53 53 53 53 53 54 55 55 55 56 56 56 57
48 48 47 47 48 48 50 51 51 51 53 53 52 52 52 52 52 52 53 53 53 53 52 52 52 53 53 54 54 54 54 53 52 51 51 51 51 51 51 51 51 52 53 53 54 54 55 55 54 53 52 52 52 52 53 53 53 53 52 52 52 52 52 52 52 53 54 55 54 53 52 52 53 53 53 53 53 53 54 55 55 56 56 56 57
50 50 50 50 50 49 50 51 52 54 56 55 53 52 53 54 54 55 56 56 56 55 55 54 54 54 54 55 54 54 53 53 52 52 51 51 51 50 50 51 51 51 52 52 53 54 55 55 55 54 54 53 53 53 54 55 55 54 53 52 52 52 52 52 52 52 52 53 53 54 53 52 52 53 53 53 53 53 54 54 55 55 55 56 56
51 52 52 52 53 53 54 55 55 57 60 60 57 56 56 55 55 56 56 56 56 56 56 56 55 55 55 54 53 52 52 52 52 52 52 52 51 51 51 51 51 52 52 52 52 53 53 53 54 53 53 53 52 51 51 52 53 52 52 52 51 51 51 51 51 51 51 51 51 52 52 52 52 52 52 52 53 53 54 54 55 55 55 56 56
49 50 51 52 54 55 57 58 57 58 59 59 58 57 57 57 57 57 56 56 56 56 56 55 54 54 54 53 52 52 51 51 51 51 51 51 51 51 51 52 52 52 53 53 53 53 53 53 53 53 53 53 52 52 51 51 51 51 51 51 51 50 50 50 50 50 50 51 51 50 50 51 51 51 51 52 52 53 54 54 55 55 56 56 56
49 49 49 51 52 54 55 57 57 58 59 59 58 58 58 57 57 57 56 56 55 55 55 54 53 52 52 51 51 51 51 50 50 50 50 49 49 49 49 50 51 52 52 52 52 52 53 53 53 53 53 53 53 53 52 52 52 51 51 51 51 50 49 49 49 50 50 51 51 50 50 50 50 50 51 51 52 53 53 54 54 55 55 56 56
49 49 49 49 50 51 52 55 57 58 59 60 60 59 59 58 57 56 56 55 54 54 53 52 52 51 50 50 50 50 49 49 49 48 48 48 48 48 48 48 49 49 49 49 49 50 50 51 51 51 51 51 51 52 52 52 52 51 51 51 50 49 49 49 49 49 50 50 50 50 50 50 50 51 51 52 53 53 53 53 54 55 55 56 56
49 49 49 49 49 49 50 53 55 57 58 59 59 59 59 58 57 56 55 54 53 53 52 52 51 51 50 50 49 49 49 48 48 47 47 47 47 47 47 47 47 47 47 46 45 46 46 47 47 47 47 47 48 48 48 49 49 49 49 49 49 48 48 48 48 48 49 49 50 50 50 50 51 51 51 52 52 52 52 53 53 54 54 55 56
50 50 50 50 51 51 51 51 52 53 55 57 57 58 58 57 57 56 55 54 53 52 52 52 53 53 52 51 50 49 48 48 48 47 47 47 47 47 47 46 46 46 45 44 44 44 45 45 44 44 45 45 45 45 45 45 45 46 46 46 46 46 46 46 46 46 46 47 48 48 48 49 49 50 50 50 50 50 50 50 51 52 53 53 54
53 52 52 52 53 53 52 52 52 52 53 55 56 56 56 55 55 54 54 53 53 53 53 54 54 53 52 51 50 49 48 47 47 47 46 45 45 45 45 46 46 46 45 44 44 44 44 44 44 44 45 44 44 43 43 43 42 43 43 43 44 44 44 43 43 43 43 44 45 46 46 46 46 46 46 47 47 47 48 48 49 50 51 53 54
53 53 53 54 54 53 53 53 53 53 54 54 55 55 55 53 51 51 51 52 53 54 54 53 53 52 52 51 50 49 47 46 45 44 44 44 44 45 45 45 46 46 45 44 43 43 43 43 43 43 44 43 42 42 41 40 40 41 41 41 41 41 41 41 41 42 43 43 44 44 44 44 44 45 45 46 46 47 48 49 50 51 52 53 54
52 53 53 54 54 53 53 53 54 54 54 54 54 53 52 51 49 49 50 52 53 53 53 52 51 50 50 49 48 47 45 44 44 43 43 43 44 44 44 44 45 45 44 43 43 42 42 41 41 41 41 41 41 40 40 40 40 40 39 39 40 40 41 41 42 43 43 43 44 44 44 45 45 46 46 47 47 48 49 49 50 50 51 51 52
52 52 53 54 54 54 54 54 54 54 54 53 52 50 49 49 49 50 51 51 51 51 51 51 50 49 48 47 46 44 44 43 43 43 43 43 43 43 43 43 43 43 43 42 42 41 41 40 40 40 41 41 41 41 41 41 40 40 40 40 40 41 42 42 43 43 44 44 45 45 45 46 45 45 45 45 45 45 45 44 44 45 45 46 47
52 52 53 54 54 55 55 55 54 54 53 53 52 51 50 50 50 51 51 51 50 50 50 50 49 48 47 46 44 43 43 42 42 42 43 42 42 42 42 42 42 42 42 42 41 41 41 41 41 41 41 41 41 42 41 41 41 41 41 41 41 42 43 43 43 43 43 43 43 42 42 41 40 39 39 38 38 38 38 39 40 41 43 44 46
53 53 53 54 54 55 55 54 53 53 53 53 53 52 51 51 51 51 50 50 50 50 50 49 49 48 47 45 44 43 42 42 41 41 41 41 41 41 41 41 41 41 41 41 41 41 41 41 41 41 41 41 41 41 41 41 41 41 41 42 42 42 41 41 40 39 38 37 35 34 33 32 32 32 32 32 33 34 36 38 39 41 43 45 46
53 53 53 53 54 54 53 52 52 53 54 53 53 53 52 52 52 51 50 50 50 49 49 49 48 47 46 45 44 42 41 41 40 39 39 40 40 40 39 39 40 40 40 40 40 40 41 41 41 41 41 41 41 41 41 41 41 41 40 39 39 38 37 35 33 31 29 27 26 26 26 26 26 27 28 29 31 33 35 37 38 40 42 44 46
Wind_Direction
262 263 259 255 258 265 268 277 287 286 280 274 272 274 270 270 273 275 281 284 287 289 290 293 294 297 298 297 296 294 292 290 289 288 288 290 291 291 290 288 285 282 281 280 280 281 281 280 280 281 282 281 281 279 279 278 277 276 275 276 277 272 266 265 269 272 272 270 269 267 264 263 263 264 267 262 253 249 246 242 237 233 228 225 226
266 263 259 256 257 261 266 276 280 277 275 272 272 269 263 266 270 274 282 284 285 288 290 292 294 298 300 300 300 298 297 295 295 292 290 290 291 293 293 292 291 288 285 282 280 279 279 280 281 281 281 281 280 278 277 277 276 276 275 274 274 271 265 266 271 272 271 272 272 271 268 265 266 269 272 268 262 260 254 245 239 235 231 228 228
265 261 259 257 260 267 272 274 272 271 272 271 271 268 266 269 270 275 280 282 285 287 290 294 294 297 300 301 301 300 298 296 295 294 293 292 292 293 294 294 294 292 290 287 285 283 282 282 282 281 281 281 279 277 276 275 275 275 275 274 275 274 270 269 271 270 270 272 272 271 270 269 269 269 270 268 268 270 265 253 245 242 237 232 229
261 264 265 265 266 266 268 269 269 270 270 266 267 276 282 278 272 276 280 281 285 286 290 295 295 296 295 295 296 297 297 295 294 294 293 292 292 292 292 292 293 292 292 291 291 289 287 286 285 284 284 282 281 279 276 275 274 273 274 274 274 274 273 272 272 269 268 269 269 269 269 269 271 271 269 268 268 268 270 268 263 257 248 239 235
267 270 271 270 267 263 263 265 265 268 270 264 265 279 287 284 277 277 280 283 285 286 290 294 295 297 297 296 296 298 298 295 294 293 291 291 291 290 290 290 290 290 291 291 292 292 291 290 289 288 287 284 282 280 277 275 273 272 271 271 271 272 272 273 273 271 268 266 266 266 266 267 269 272 271 269 270 268 266 267 267 267 261 248 241
279 275 271 269 267 266 266 264 264 266 268 264 264 271 280 283 279 276 280 284 286 289 292 295 296 298 299 299 298 300 302 300 297 294 291 289 288 289 289 288 288 288 288 289 289 290 290 289 289 289 287 285 282 279 277 274 271 269 268 267 267 268 269 270 271 271 269 267 265 265 265 266 267 269 271 271 271 269 265 264 262 264 268 264 254
279 270 264 266 268 270 269 266 265 266 266 264 260 263 273 278 277 277 280 284 287 289 292 295 296 297 299 300 299 300 303 303 301 298 295 290 287 287 286 286 286 285 285 286 286 286 286 286 286 286 285 282 279 277 275 272 268 265 263 262 263 264 265 266 268 268 268 267 267 267 266 265 265 265 267 269 270 270 267 264 263 264 268 267 262
272 269 268 270 270 268 269 267 264 264 266 266 263 263 267 271 275 279 281 282 285 288 292 294 295 296 297 298 298 300 303 305 304 302 298 293 288 285 284 284 283 283 283 283 284 284 284 283 282 281 280 278 275 273 271 268 265 262 259 258 258 260 262 264 265 266 267 268 266 267 267 265 263 262 262 262 262 265 265 263 263 264 264 260 261
270 274 274 273 270 266 268 269 266 267 268 268 267 264 265 270 274 279 282 283 283 286 291 293 294 295 296 297 299 300 303 305 304 301 298 292 288 283 281 281 281 281 282 281 281 281 281 281 280 279 276 274 272 270 268 265 263 261 259 257 256 256 259 262 264 264 265 266 265 264 265 265 262 261 259 258 258 260 260 260 261 260 258 261 270
269 273 272 273 277 274 274 273 271 270 266 264 263 263 268 271 271 274 281 285 284 287 291 293 294 294 294 296 299 301 302 303 301 297 294 290 286 282 280 279 279 279 280 280 279 278 277 277 277 276 275 273 272 270 268 264 261 260 260 260 258 257 259 262 264 265 265 266 266 263 262 262 260 259 258 258 258 260 260 261 262 261 260 264 270
268 270 271 277 283 284 283 278 274 269 263 261 262 267 272 271 270 271 275 282 285 287 289 291 293 292 292 293 295 300 300 299 295 290 288 286 283 281 279 279 280 280 280 281 281 279 277 276 275 275 274 273 272 270 269 267 263 261 260 260 260 260 261 264 266 267 267 268 267 264 261 260 258 256 257 258 260 261 262 262 262 261 261 263 265
269 270 277 288 287 285 283 279 276 271 266 266 267 271 273 273 273 268 267 276 281 282 286 288 290 289 288 289 292 296 297 293 289 284 281 281 279 278 278 279 281 283 283 283 283 284 282 280 279 277 276 274 272 271 269 269 267 266 264 262 261 261 261 264 267 269 269 268 268 266 264 261 259 257 256 258 260 262 262 262 260 259 260 261 262
274 279 288 288 279 276 277 274 275 274 273 274 274 276 277 280 280 267 261 273 275 273 279 282 285 286 283 286 289 291 292 287 281 277 276 276 275 274 275 278 280 282 284 285 285 286 286 285 283 280 278 276 273 271 269 267 266 266 266 266 264 263 263 264 266 269 269 268 267 266 265 264 262 260 259 259 260 261 262 262 260 259 259 258 259
281 291 290 281 276 277 276 274 277 278 278 280 281 283 282 288 286 262 250 260 265 267 276 279 281 283 281 282 286 287 285 278 273 272 272 272 272 271 272 275 279 281 282 284 286 286 286 286 285 283 281 279 277 275 273 270 267 265 264 265 265 264 264 264 265 267 268 268 267 265 264 264 264 263 262 262 263 263 263 263 261 259 257 256 256
285 287 279 276 279 281 278 277 279 279 279 280 281 282 281 284 283 259 242 250 267 273 274 273 275 278 279 280 283 284 279 270 266 267 269 270 269 270 274 276 278 282 283 284 286 287 286 285 284 283 281 279 279 277 276 275 272 269 266 263 263 262 262 262 263 264 265 266 266 264 262 261 262 263 263 263 264 265 265 264 263 261 257 256 257
273 268 268 273 278 279 278 277 278 278 279 279 280 281 277 276 278 269 254 258 273 273 266 267 271 274 278 280 280 280 275 266 263 263 265 268 268 269 275 279 280 282 284 285 286 286 285 284 282 282 280 278 277 275 275 275 275 275 272 269 266 263 261 259 260 261 262 264 265 264 262 259 258 259 260 261 262 264 265 264 264 263 261 259 258
264 264 268 272 273 274 275 275 276 277 276 276 276 275 273 269 271 274 268 265 272 274 272 277 279 278 279 277 274 274 270 263 261 262 262 265 268 271 274 279 280 280 280 281 282 283 283 282 281 280 280 278 276 273 272 271 272 273 273 273 271 269 265 262 259 258 258 260 263 264 264 262 259 258 259 261 262 262 263 263 263 263 262 261 259
265 269 270 269 269 270 273 274 275 276 275 274 273 272 273 272 271 277 278 275 277 278 275 276 277 278 278 272 267 267 263 260 259 259 261 262 267 274 275 275 276 277 279 278 277 278 277 277 278 277 276 276 274 273 271 270 270 270 270 271 271 271 269 266 262 259 256 255 256 259 262 263 263 261 261 262 264 265 264 263 261 262 262 261 260
264 266 266 267 268 269 273 276 276 278 279 278 277 276 277 280 280 280 279 280 283 281 276 273 271 274 274 266 262 263 258 257 258 258 261 264 267 273 276 274 272 274 277 277 276 275 273 273 273 272 271 271 271 271 270 270 270 269 269 268 269 269 269 268 265 261 258 255 254 254 255 258 261 261 260 261 263 265 266 264 261 260 261 262 261
261 263 266 269 272 273 274 276 276 277 280 280 280 280 279 280 281 279 277 278 282 282 279 277 274 275 274 264 257 259 258 257 258 259 261 265 268 273 276 275 275 275 277 278 276 272 270 268 267 267 267 266 267 267 267 268 268 268 269 269 268 268 268 268 268 267 264 261 258 256 255 254 255 256 256 256 257 259 260 260 260 258 258 259 260
264 268 273 274 276 277 275 274 274 273 274 275 277 278 277 276 276 276 276 277 279 278 276 275 274 276 278 267 255 255 260 262 268 267 262 259 263 269 271 273 275 276 279 280 278 274 270 267 264 263 263 263 264 265 265 265 265 264 265 267 268 268 268 268 269 271 271 269 265 262 260 258 257 256 255 254 253 253 254 255 255 256 255 255 256
273 276 279 279 279 279 277 274 272 271 272 272 273 275 276 275 273 273 274 274 276 277 275 275 273 272 275 271 262 260 260 266 276 273 261 255 259 265 267 269 270 271 274 276 276 275 272 269 266 264 263 263 262 263 265 265 266 266 264 263 265 267 269 270 270 271 271 271 271 268 266 264 262 261 260 258 257 256 255 255 255 256 256 255 255
273 278 278 278 279 280 279 278 275 273 272 273 274 274 274 274 273 272 272 272 273 274 274 274 273 272 272 272 270 268 266 269 272 271 265 261 262 264 266 267 266 266 268 269 268 269 269 268 269 268 267 267 266 266 268 268 268 268 267 264 263 264 268 270 271 272 271 271 272 273 272 269 267 266 265 264 263 262 261 261 260 260 260 260 259
274 276 275 275 277 277 276 276 276 276 276 276 276 276 276 276 273 271 271 271 271 271 272 272 272 272 272 269 267 268 269 270 270 270 270 267 266 267 266 265 265 264 265 265 263 261 262 264 266 267 266 268 271 271 273 272 269 266 266 266 264 263 263 265 266 268 270 271 272 272 274 274 272 270 269 268 268 267 266 265 264 263 263 263 263
276 276 274 273 273 274 274 275 275 275 274 274 274 275 276 277 275 273 270 269 269 269 269 270 270 271 270 268 266 266 266 267 267 268 269 267 268 268 265 265 266 264 265 268 264 259 258 261 263 263 262 265 270 272 271 270 267 267 266 265 264 263 260 259 260 262 264 268 271 272 273 274 275 275 274 273 272 271 270 268 267 266 265 264 263
274 274 273 272 272 273 273 273 274 275 274 273 272 272 273 275 274 273 271 269 267 267 267 268 269 270 271 270 269 267 266 267 269 269 269 267 267 266 263 265 267 265 264 267 267 262 261 263 263 263 264 266 269 272 271 266 266 271 272 267 263 263 262 260 260 260 260 263 267 271 272 272 274 275 276 276 276 275 275 274 273 271 270 268 266
274 273 271 272 273 272 271 271 271 271 271 272 273 273 273 273 271 271 271 270 268 267 266 266 267 269 271 271 270 268 267 268 269 270 271 270 267 263 261 263 265 263 262 265 269 269 265 261 261 267 276 278 274 273 271 266 262 266 271 270 266 263 262 262 263 264 264 265 267 269 271 271 272 273 274 274 274 274 274 274 273 272 272 271 270
275 272 270 271 272 272 272 272 270 268 266 266 268 270 271 271 270 270 270 269 269 267 266 266 266 267 268 269 271 271 270 269 269 270 271 271 269 266 264 263 263 263 262 264 269 271 266 259 261 272 281 282 278 275 274 273 267 262 263 268 270 267 264 263 263 265 266 268 270 272 273 274 274 275 275 274 273 273 273 272 271 270 270 269 269
271 267 268 270 272 273 274 273 273 271 268 265 264 264 265 266 268 269 268 267 266 265 266 266 266 266 266 267 269 271 271 272 272 272 271 270 271 270 270 268 267 266 265 265 268 270 269 267 270 275 277 277 275 275 277 279 276 266 260 262 270 273 271 268 266 267 268 269 271 272 273 274 275 277 277 277 276 276 275 274 273 271 270 269 268
266 264 264 267 269 271 273 274 274 272 270 268 267 265 265 265 265 266 265 264 263 263 264 264 264 265 265 266 267 268 270 271 272 273 273 272 272 272 273 273 272 271 270 269 269 270 272 273 273 274 274 274 274 274 275 276 274 269 265 265 270 274 274 274 273 273 273 274 273 273 272 272 273 274 275 275 276 276 276 275 274 274 273 271 270
265 264 264 265 265 265 267 269 269 270 270 270 269 269 269 267 266 265 262 261 261 262 263 263 262 262 263 264 265 266 267 269 270 271 272 273 273 274 274 274 275 276 275 274 273 273 273 274 274 274 274 274 274 274 273 273 272 271 270 270 273 275 276 276 275 273 272 274 274 273 272 271 271 271 272 273 274 274 274 274 274 274 274 273 272
268 266 265 265 264 264 264 264 264 266 269 270 271 272 270 268 267 266 263 261 262 264 265 264 263 262 261 262 263 264 265 267 268 269 270 272 273 273 274 274 275 276 276 276 276 276 275 275 275 274 274 274 275 274 274 272 270 270 270 271 274 277 278 278 277 275 273 272 271 271 271 271 271 271 272 272 272 272 272 272 273 273 273 272 272
268 267 267 266 266 266 265 264 264 265 267 269 270 270 269 267 266 265 264 263 264 266 267 267 266 264 263 262 263 264 265 266 267 268 269 270 271 272 272 273 274 274 274 274 275 275 276 277 277 276 275 275 274 273 272 270 269 268 269 270 272 274 275 276 276 275 274 272 270 270 270 270 271 271 272 272 272 271 271 271 272 273 273 272 272
265 266 268 268 267 267 267 265 263 262 263 265 268 268 267 266 266 266 266 265 266 267 267 268 267 267 266 265 266 267 267 268 269 269 269 270 270 271 271 272 272 273 273 273 273 274 275 276 276 277 277 276 275 273 271 270 269 270 270 270 271 273 274 274 274 275 274 273 271 271 270 270 271 272 273 273 272 271 271 271 272 272 273 273 273
264 265 266 267 266 266 266 266 264 263 262 263 264 264 264 264 265 266 266 267 268 268 267 266 265 265 266 267 269 269 269 271 271 270 270 270 270 270 270 271 271 272 272 272 273 273 274 274 275 275 276 276 275 274 273 272 271 271 272 273 274 274 275 275 276 277 277 276 276 275 274 274 274 275 274 274 273 272 271 271 271 272 272 272 273
263 263 263 263 265 265 265 266 266 264 262 261 261 261 261 262 263 265 265 267 268 267 266 265 265 264 265 266 267 268 269 271 272 271 270 270 269 269 270 270 271 271 271 272 272 272 272 273 274 274 273 273 273 273 274 274 273 273 274 274 275 276 276 277 278 279 280 281 280 279 277 276 276 276 275 274 273 273 273 272 272 272 272 272 272
262 261 259 260 262 263 263 264 263 263 262 261 260 261 261 262 263 265 265 266 267 267 266 266 265 265 264 265 266 267 268 269 269 268 268 268 268 268 268 268 269 269 269 270 271 270 271 272 273 273 273 272 272 273 274 274 275 275 275 276 276 277 277 278 279 280 281 281 281 280 278 277 276 276 276 276 275 274 273 273 273 273 273 272 272
258 258 257 258 259 259 259 259 260 261 262 263 263 263 264 264 265 266 267 267 267 267 266 266 266 266 265 266 266 267 267 267 266 266 266 265 265 265 266 266 266 266 266 267 267 268 269 271 273 273 274 273 273 273 274 274 274 275 275 276 276 277 278 278 278 278 278 278 278 277 277 277 276 276 276 276 276 275 274 274 274 273 273 273 272
257 256 255 256 257 256 256 258 260 261 262 265 266 266 267 267 267 267 267 267 267 267 266 267 267 267 267 267 268 268 267 266 266 265 265 264 264 265 265 265 265 265 265 266 266 267 268 269 271 272 272 273 273 272 272 273 273 274 274 274 275 275 275 276 276 276 276 275 275 275 275 275 275 275 274 274 274 274 274 274 274 274 274 273 273
259 258 256 255 256 257 258 259 260 261 262 264 265 265 265 266 266 266 266 266 267 267 267 268 268 268 268 268 268 268 267 266 266 265 265 265 264 264 265 266 266 266 266 266 266 267 267 268 269 270 271 272 272 273 273 273 273 274 274 274 274 274 275 275 275 276 275 275 275 275 275 274 274 274 274 273 273 273 273 273 273 274 274 273 273
261 260 259 258 258 258 259 260 260 260 260 261 261 262 263 263 264 265 266 266 267 267 267 268 269 269 269 269 268 268 267 267 267 266 266 265 265 265 265 265 266 266 267 267 267 267 268 268 268 269 270 271 272 272 272 273 273 273 274 274 275 275 275 275 275 275 275 275 275 275 275 275 275 274 274 273 273 273 274 274 274 274 274 274 274
263 262 261 260 259 258 258 258 259 259 260 260 261 262 263 263 264 264 265 266 266 266 267 268 269 269 269 268 268 268 268 268 268 267 267 267 267 266 266 265 265 266 266 267 268 269 269 269 269 270 270 270 271 271 271 271 272 272 273 273 274 274 274 274 274 274 274 275 275 275 275 275 275 274 274 275 275 275 275 275 275 275 275 275 275
265 265 263 262 261 259 258 258 259 259 260 261 262 262 262 263 264 264 265 266 266 267 267 268 268 268 267 266 267 268 268 269 269 269 269 268 268 267 267 267 267 267 266 266 266 267 267 268 269 270 270 270 270 270 271 271 271 271 271 272 273 273 273 273 273 273 274 274 274 274 274 274 274 275 275 275 275 275 275 275 275 275 275 275 275
265 265 264 263 263 263 262 262 261 261 261 262 262 262 262 263 264 265 266 267 267 268 268 268 267 266 266 267 267 267 268 268 268 269 268 268 269 269 269 269 269 268 267 266 266 266 266 267 268 268 268 269 269 270 271 271 272 272 272 273 273 272 272 272 272 273 273 274 274 274 274 274 274 275 275 275 275 275 275 274 274 274 274 274 273
265 265 264 263 262 262 262 262 261 260 260 260 260 261 261 262 263 265 266 267 266 266 265 265 266 267 268 268 267 267 266 265 266 266 267 268 268 269 269 269 269 269 268 267 267 267 267 267 268 268 267 268 268 269 270 271 272 273 273 273 272 272 272 272 273 273 274 274 274 275 275 275 275 275 276 276 276 275 275 275 275 274 274 274 273
266 266 265 264 263 262 262 261 261 260 260 259 260 260 261 261 262 263 264 264 264 263 263 263 265 266 267 267 267 267 267 266 266 266 266 267 267 267 267 268 268 269 269 268 267 266 267 267 267 267 268 268 269 269 270 271 271 272 272 272 272 272 272 273 274 274 275 275 276 276 277 278 278 278 278 278 278 278 278 277 277 276 276 275 275
265 264 264 264 264 264 263 262 261 261 261 261 261 262 263 264 264 263 262 261 261 261 262 263 263 264 265 266 266 267 267 267 266 265 265 265 265 265 266 266 267 268 268 268 267 266 266 266 266 266 267 268 268 269 270 270 270 271 272 272 272 272 272 273 274 275 276 277 278 279 280 281 281 281 281 281 281 280 280 279 279 278 278 278 277
263 263 263 263 263 263 262 262 262 262 263 263 263 264 264 264 264 262 261 260 261 262 263 263 264 264 264 265 266 266 266 266 265 264 263 263 264 265 265 265 266 266 267 267 266 266 266 266 265 266 266 267 267 268 268 269 270 271 271 271 272 272 273 274 275 276 277 278 280 280 281 282 282 282 282 282 281 281 280 280 280 280 281 281 281
264 263 262 262 262 262 262 263 263 263 264 264 264 263 262 261 261 261 262 262 263 263 264 265 265 265 265 266 266 265 265 264 264 263 263 263 264 264 264 264 264 265 265 265 265 265 266 265 265 265 266 266 266 267 267 269 269 270 270 271 271 272 273 274 276 277 278 279 280 281 281 282 282 281 281 281 282 282 282 283 283 284 284 284 283
265 264 263 262 262 262 262 263 263 264 264 264 263 263 263 262 261 262 262 263 263 264 265 266 266 267 267 267 266 265 265 265 264 264 264 264 264 263 263 263 263 263 264 264 264 264 264 264 264 264 264 265 265 266 267 267 268 269 270 270 271 272 273 275 276 277 278 279 279 280 280 280 281 282 283 284 285 285 286 286 285 285 284 283 281
266 265 264 263 262 262 262 262 262 262 262 262 263 263 263 263 262 262 262 263 264 264 264 265 265 266 266 266 266 266 266 266 266 265 264 264 263 263 263 262 262 262 262 262 263 262 262 262 262 263 263 263 264 265 266 267 267 268 269 270 271 272 273 274 275 275 276 276 277 278 279 281 283 285 287 287 288 287 287 286 285 284 283 283 282
Height
5769 5770 5771 5772 5773 5773 5775 5774 5774 5775 5776 5776 5777 5777 5777 5777 5777 5776 5776 5777 5777 5777 5778 5778 5778 5777 5777 5776 5775 5775 5775 5775 5776 5776 5776 5776 5775 5775 5775 5776 5776 5776 5777 5777 5778 5779 5780 5781 5782 5783 5783 5784 5785 5785 5786 5786 5786 5787 5787 5786 5786 5787 5787 5788 5789 5789 5789 5789 5790 5790 5790 5790 5790 5790 5791 5791 5792 5792 5793 5793 5794 5795 5796 5799 5800
5766 5768 5768 5770 5772 5772 5773 5773 5773 5774 5774 5775 5775 5775 5775 5774 5774 5774 5775 5775 5775 5775 5776 5776 5776 5776 5775 5774 5773 5773 5773 5773 5773 5773 5773 5773 5773 5773 5773 5773 5773 5773 5773 5774 5775 5776 5777 5777 5778 5779 5780 5781 5782 5782 5782 5783 5783 5784 5783 5783 5783 5784 5784 5785 5786 5786 5786 5786 5787 5787 5787 5787 5787 5788 5789 5789 5790 5790 5790 5790 5791 5792 5793 5795 5797
5764 5765 5766 5768 5769 5770 5770 5771 5771 5772 5772 5773 5773 5773 5773 5772 5771 5772 5772 5773 5773 5773 5774 5774 5774 5774 5774 5773 5772 5772 5771 5771 5771 5771 5771 5771 5771 5771 5770 5770 5771 5770 5770 5771 5771 5772 5773 5774 5774 5775 5777 5777 5778 5779 5779 5779 5780 5780 5780 5780 5780 5780 5781 5782 5782 5783 5783 5784 5784 5784 5784 5784 5785 5786 5787 5787 5788 5788 5788 5788 5789 5790 5790 5792 5793
5761 5763 5763 5765 5766 5767 5768 5768 5769 5769 5771 5771 5771 5771 5770 5769 5769 5769 5770 5771 5771 5771 5772 5772 5772 5772 5772 5772 5771 5771 5770 5769 5769 5769 5769 5769 5769 5769 5768 5768 5768 5768 5768 5768 5768 5769 5769 5770 5771 5772 5773 5774 5774 5775 5776 5776 5776 5776 5777 5777 5777 5777 5778 5779 5780 5780 5781 5782 5782 5782 5782 5782 5782 5783 5784 5784 5785 5785 5786 5786 5786 5787 5787 5789 5790
5759 5761 5760 5761 5762 5763 5764 5766 5767 5767 5768 5769 5769 5768 5767 5767 5767 5768 5768 5769 5768 5769 5770 5770 5770 5770 5770 5769 5769 5768 5768 5768 5767 5767 5767 5767 5767 5767 5767 5767 5767 5766 5766 5766 5766 5766 5766 5767 5767 5768 5769 5770 5771 5772 5773 5773 5774 5774 5774 5774 5774 5775 5775 5776 5777 5778 5778 5779 5779 5780 5780 5780 5780 5781 5781 5782 5782 5783 5783 5784 5784 5784 5785 5786 5788
5756 5758 5758 5758 5759 5760 5761 5762 5763 5764 5764 5765 5766 5766 5766 5766 5766 5766 5767 5767 5766 5767 5767 5768 5768 5768 5768 5767 5767 5766 5766 5766 5765 5765 5765 5765 5765 5765 5764 5764 5765 5765 5764 5764 5765 5765 5764 5764 5765 5765 5766 5767 5768 5769 5770 5771 5771 5772 5772 5772 5772 5773 5773 5773 5774 5775 5775 5775 5776 5777 5777 5778 5778 5779 5779 5779 5780 5780 5781 5781 5782 5782 5783 5784 5785
5753 5755 5755 5755 5756 5757 5758 5759 5760 5761 5761 5762 5764 5765 5765 5765 5765 5765 5765 5765 5765 5765 5765 5765 5766 5766 5766 5765 5765 5764 5764 5764 5763 5763 5763 5763 5763 5763 5763 5762 5763 5763 5763 5762 5763 5763 5763 5763 5763 5763 5764 5764 5765 5766 5767 5768 5769 5769 5770 5770 5770 5770 5771 5771 5771 5772 5772 5772 5773 5773 5774 5775 5776 5777 5777 5777 5777 5777 5778 5778 5779 5780 5780 5781 5782
5751 5752 5753 5754 5755 5755 5756 5757 5758 5759 5760 5761 5762 5763 5764 5763 5763 5763 5763 5763 5763 5762 5763 5763 5764 5764 5764 5764 5763 5763 5762 5762 5762 5762 5762 5762 5761 5761 5761 5761 5761 5761 5761 5761 5761 5761 5761 5761 5761 5761 5762 5762 5763 5763 5764 5765 5766 5767 5767 5767 5768 5768 5768 5768 5769 5769 5769 5770 5770 5771 5771 5772 5773 5774 5774 5775 5775 5775 5776 5776 5777 5777 5778 5778 5779
5749 5750 5751 5752 5753 5753 5754 5756 5757 5758 5758 5759 5760 5761 5761 5760 5760 5761 5761 5761 5761 5760 5760 5760 5761 5762 5762 5762 5762 5761 5761 5760 5760 5760 5760 5760 5760 5759 5759 5759 5759 5759 5759 5759 5759 5759 5759 5759 5759 5759 5760 5760 5761 5761 5762 5762 5763 5764 5764 5765 5765 5766 5766 5766 5766 5766 5767 5767 5768 5768 5768 5769 5769 5770 5771 5772 5772 5773 5774 5774 5774 5775 5775 5776 5776
5747 5749 5750 5751 5752 5752 5753 5754 5755 5755 5756 5757 5757 5757 5758 5758 5758 5758 5759 5759 5758 5758 5757 5758 5758 5759 5760 5760 5760 5759 5759 5759 5758 5758 5758 5758 5758 5758 5757 5757 5757 5757 5757 5757 5757 5757 5757 5757 5757 5758 5758 5758 5759 5759 5759 5760 5760 5761 5761 5762 5762 5763 5763 5763 5764 5764 5764 5765 5765 5766 5766 5766 5767 5767 5767 5768 5769 5770 5770 5771 5771 5772 5772 5773 5773
5746 5748 5749 5751 5752 5751 5751 5751 5752 5753 5754 5754 5754 5754 5755 5756 5756 5756 5757 5756 5755 5754 5754 5754 5755 5756 5757 5758 5758 5757 5757 5756 5756 5756 5756 5756 5756 5756 5756 5755 5755 5755 5756 5756 5755 5756 5756 5756 5756 5756 5756 5756 5756 5757 5757 5758 5758 5758 5759 5759 5760 5760 5761 5761 5761 5761 5762 5762 5763 5763 5764 5764 5764 5765 5765 5765 5765 5766 5766 5767 5768 5768 5768 5769 5769
5743 5745 5747 5749 5750 5749 5748 5748 5749 5750 5750 5751 5751 5751 5752 5753 5754 5754 5754 5753 5752 5751 5751 5751 5751 5752 5753 5754 5755 5755 5754 5754 5754 5754 5754 5754 5754 5754 5754 5754 5753 5753 5754 5754 5754 5754 5754 5754 5754 5754 5754 5754 5754 5754 5755 5755 5755 5756 5756 5756 5757 5757 5758 5758 5758 5759 5759 5760 5760 5761 5761 5762 5762 5762 5762 5762 5762 5762 5762 5764 5765 5765 5765 5765 5765
5740 5742 5744 5745 5745 5746 5745 5746 5746 5746 5747 5748 5749 5749 5749 5750 5750 5750 5751 5750 5749 5748 5748 5747 5747 5748 5749 5750 5751 5752 5752 5752 5752 5752 5752 5752 5752 5752 5752 5752 5752 5752 5752 5752 5752 5752 5752 5752 5752 5752 5752 5752 5752 5752 5752 5753 5753 5753 5753 5754 5754 5754 5755 5755 5755 5756 5756 5757 5758 5758 5758 5759 5759 5760 5760 5759 5759 5759 5759 5760 5761 5762 5762 5762 5762
5738 5739 5740 5739 5740 5742 5743 5744 5744 5744 5744 5745 5746 5746 5746 5745 5746 5746 5745 5745 5745 5745 5745 5744 5744 5744 5745 5746 5748 5749 5749 5749 5749 5749 5750 5750 5750 5750 5750 5750 5750 5750 5750 5750 5750 5751 5750 5750 5750 5750 5750 5750 5749 5750 5750 5750 5750 5751 5751 5751 5751 5751 5752 5752 5752 5753 5753 5754 5755 5755 5756 5756 5756 5757 5757 5757 5757 5757 5757 5757 5758 5759 5759 5759 5759
5738 5738 5737 5736 5737 5738 5739 5741 5742 5741 5742 5742 5743 5743 5743 5743 5743 5742 5741 5741 5741 5739 5738 5739 5739 5740 5741 5743 5745 5746 5747 5747 5747 5747 5747 5747 5748 5747 5747 5748 5748 5748 5748 5748 5749 5749 5749 5748 5748 5748 5748 5748 5747 5747 5748 5748 5748 5748 5748 5749 5749 5749 5749 5749 5750 5750 5750 5751 5751 5752 5753 5753 5754 5754 5754 5754 5754 5755 5755 5755 5755 5756 5756 5757 5757
5737 5735 5734 5734 5735 5735 5736 5737 5738 5738 5739 5739 5739 5740 5742 5742 5741 5741 5741 5740 5736 5732 5731 5733 5736 5737 5739 5741 5742 5743 5744 5744 5745 5745 5745 5745 5745 5745 5745 5745 5745 5746 5746 5746 5746 5746 5746 5746 5746 5746 5746 5746 5746 5746 5746 5746 5746 5746 5746 5746 5746 5747 5747 5747 5747 5747 5748 5748 5749 5749 5750 5751 5751 5752 5752 5752 5752 5753 5753 5753 5753 5753 5754 5754 5755
5732 5732 5732 5732 5733 5732 5733 5734 5735 5735 5736 5736 5737 5738 5740 5741 5741 5739 5738 5736 5734 5733 5732 5732 5735 5736 5736 5738 5740 5740 5741 5742 5742 5743 5743 5743 5743 5743 5743 5743 5743 5743 5744 5744 5744 5744 5744 5744 5744 5744 5744 5744 5744 5744 5744 5744 5744 5744 5744 5744 5744 5744 5745 5745 5745 5745 5745 5746 5746 5747 5747 5748 5749 5749 5750 5750 5750 5751 5751 5751 5751 5751 5752 5752 5753
5728 5728 5729 5729 5730 5730 5730 5731 5731 5732 5733 5733 5734 5734 5735 5737 5737 5735 5732 5730 5732 5732 5730 5730 5731 5732 5733 5734 5736 5737 5738 5739 5740 5741 5741 5741 5741 5741 5741 5741 5741 5741 5741 5741 5741 5741 5741 5741 5742 5742 5742 5742 5742 5742 5742 5742 5742 5742 5742 5742 5742 5742 5743 5743 5743 5743 5743 5744 5744 5744 5745 5745 5746 5747 5747 5747 5748 5748 5749 5749 5750 5750 5750 5750 5751
5725 5725 5726 5726 5727 5728 5728 5728 5728 5729 5729 5729 5729 5729 5729 5729 5729 5729 5727 5726 5727 5727 5728 5728 5728 5728 5729 5731 5732 5734 5735 5737 5738 5738 5739 5739 5739 5739 5739 5739 5739 5739 5738 5739 5739 5739 5739 5739 5739 5739 5739 5739 5739 5739 5739 5739 5739 5739 5740 5740 5740 5740 5740 5741 5741 5741 5741 5742 5742 5742 5742 5743 5743 5744 5745 5745 5746 5746 5746 5747 5747 5748 5748 5748 5749
5722 5722 5723 5723 5724 5725 5725 5725 5726 5726 5726 5726 5725 5725 5725 5725 5725 5725 5723 5721 5722 5724 5725 5726 5726 5726 5727 5728 5730 5732 5733 5734 5735 5736 5737 5737 5737 5737 5737 5737 5737 5737 5737 5736 5736 5736 5736 5736 5736 5736 5736 5737 5737 5737 5737 5737 5737 5736 5737 5737 5737 5738 5738 5738 5739 5739 5739 5740 5740 5740 5741 5741 5741 5742 5742 5743 5743 5744 5744 5744 5745 5745 5746 5746 5746
5718 5719 5719 5720 5721 5721 5722 5723 5723 5724 5724 5724 5724 5724 5724 5724 5724 5723 5721 5719 5720 5721 5722 5723 5724 5725 5725 5726 5728 5729 5730 5731 5732 5733 5735 5735 5735 5735 5735 5735 5735 5735 5735 5735 5734 5734 5734 5734 5733 5733 5733 5734 5734 5734 5734 5734 5734 5734 5734 5734 5734 5734 5735 5735 5736 5737 5737 5738 5738 5738 5739 5739 5739 5739 5740 5740 5740 5741 5741 5742 5742 5742 5743 5743 5744
5714 5715 5715 5716 5717 5718 5718 5719 5720 5721 5721 5722 5722 5722 5723 5723 5722 5721 5720 5718 5718 5718 5719 5720 5721 5721 5722 5723 5725 5726 5727 5727 5728 5730 5732 5733 5733 5732 5732 5733 5733 5732 5733 5733 5732 5732 5731 5731 5731 5731 5731 5731 5731 5731 5731 5731 5731 5731 5731 5731 5731 5731 5732 5732 5733 5734 5734 5735 5735 5736 5736 5737 5737 5737 5737 5738 5738 5738 5739 5739 5740 5740 5740 5741 5741
5711 5711 5712 5713 5714 5714 5715 5716 5717 5717 5718 5719 5719 5719 5720 5720 5720 5719 5718 5716 5716 5716 5716 5717 5718 5719 5719 5720 5722 5723 5724 5724 5724 5726 5728 5729 5730 5730 5730 5730 5730 5729 5730 5730 5730 5729 5729 5729 5729 5729 5729 5729 5729 5729 5729 5728 5728 5728 5728 5729 5729 5729 5729 5730 5730 5730 5731 5732 5732 5733 5733 5734 5734 5734 5735 5735 5736 5736 5736 5737 5737 5737 5738 5738 5739
5707 5707 5708 5709 5710 5711 5712 5712 5713 5714 5714 5715 5715 5715 5716 5717 5717 5717 5716 5715 5713 5713 5713 5713 5715 5716 5716 5717 5719 5720 5720 5721 5720 5721 5723 5725 5726 5727 5727 5726 5726 5726 5726 5726 5727 5727 5726 5726 5726 5727 5727 5727 5727 5727 5726 5725 5725 5726 5726 5726 5726 5727 5727 5727 5727 5728 5728 5728 5729 5730 5730 5730 5731 5731 5732 5732 5733 5733 5733 5734 5734 5735 5735 5735 5735
5703 5703 5704 5705 5706 5707 5708 5709 5709 5710 5710 5711 5711 5712 5712 5712 5713 5713 5713 5712 5711 5711 5711 5710 5711 5712 5712 5713 5714 5715 5716 5717 5717 5718 5719 5720 5721 5722 5723 5723 5723 5723 5723 5723 5723 5723 5723 5723 5724 5724 5724 5724 5724 5724 5723 5723 5722 5723 5724 5724 5724 5724 5725 5725 5725 5725 5725 5726 5726 5726 5727 5727 5728 5728 5729 5729 5730 5730 5730 5731 5731 5731 5732 5732 5732
5699 5699 5700 5701 5702 5703 5703 5704 5704 5705 5706 5706 5707 5708 5708 5708 5708 5708 5709 5709 5709 5708 5708 5708 5708 5708 5708 5709 5710 5711 5712 5712 5713 5714 5715 5716 5717 5718 5719 5719 5719 5720 5720 5720 5720 5720 5720 5720 5721 5721 5721 5721 5721 5721 5721 5720 5720 5721 5721 5722 5722 5721 5721 5722 5722 5723 5723 5724 5723 5723 5724 5724 5724 5725 5725 5726 5726 5727 5727 5727 5727 5728 5728 5728 5728
5695 5695 5696 5697 5698 5698 5699 5700 5700 5701 5701 5701 5702 5703 5703 5704 5704 5704 5704 5704 5704 5705 5705 5705 5705 5704 5704 5705 5706 5706 5708 5708 5709 5710 5710 5711 5712 5714 5714 5715 5715 5716 5716 5716 5716 5716 5716 5716 5717 5717 5717 5718 5718 5718 5717 5717 5718 5718 5718 5718 5718 5718 5718 5719 5720 5720 5720 5721 5721 5721 5721 5721 5721 5721 5722 5722 5723 5723 5723 5723 5724 5724 5724 5724 5724
5691 5690 5691 5692 5692 5693 5694 5695 5696 5697 5698 5698 5698 5698 5698 5699 5699 5700 5700 5700 5700 5700 5701 5701 5701 5701 5701 5701 5701 5702 5703 5704 5705 5705 5706 5706 5707 5709 5709 5710 5711 5711 5712 5712 5712 5713 5712 5712 5712 5713 5713 5714 5714 5714 5713 5713 5714 5715 5714 5714 5714 5714 5715 5715 5716 5717 5717 5717 5717 5717 5717 5717 5717 5717 5718 5718 5719 5719 5719 5719 5720 5720 5720 5720 5720
5687 5686 5687 5687 5687 5687 5688 5689 5690 5692 5693 5694 5694 5694 5694 5694 5694 5695 5695 5695 5696 5696 5696 5696 5697 5697 5697 5697 5697 5697 5697 5698 5699 5700 5701 5701 5702 5703 5704 5705 5706 5707 5707 5707 5708 5708 5708 5708 5708 5709 5710 5710 5710 5710 5709 5709 5710 5711 5711 5711 5711 5711 5712 5712 5712 5713 5713 5714 5714 5714 5713 5713 5713 5713 5713 5714 5714 5714 5715 5715 5715 5715 5715 5715 5715
5681 5682 5682 5683 5683 5683 5682 5683 5683 5685 5686 5688 5688 5689 5690 5690 5690 5690 5690 5690 5691 5691 5691 5692 5692 5692 5692 5693 5693 5693 5693 5693 5694 5694 5695 5696 5697 5697 5698 5699 5700 5701 5702 5702 5703 5703 5703 5703 5703 5704 5705 5705 5706 5705 5705 5704 5704 5705 5707 5707 5706 5707 5708 5709 5709 5709 5709 5709 5709 5709 5709 5709 5709 5709 5708 5708 5709 5709 5709 5709 5709 5709 5710 5710 5710
5673 5676 5678 5679 5679 5679 5678 5678 5678 5679 5680 5681 5682 5683 5684 5685 5685 5685 5685 5685 5686 5686 5686 5687 5687 5687 5688 5688 5688 5688 5688 5689 5689 5689 5689 5690 5691 5691 5692 5693 5693 5694 5695 5696 5697 5697 5697 5697 5698 5699 5699 5700 5700 5700 5699 5699 5699 5699 5700 5701 5700 5700 5702 5703 5704 5704 5705 5704 5704 5704 5704 5704 5704 5704 5703 5703 5703 5704 5703 5703 5703 5703 5703 5703 5703
5666 5668 5671 5673 5673 5673 5674 5674 5674 5674 5675 5675 5677 5679 5679 5679 5679 5679 5679 5680 5681 5681 5681 5681 5682 5682 5682 5683 5683 5683 5683 5684 5684 5684 5685 5685 5685 5686 5686 5687 5688 5688 5688 5689 5689 5690 5691 5691 5692 5693 5693 5694 5694 5693 5693 5693 5692 5692 5693 5694 5695 5695 5695 5696 5697 5698 5699 5699 5699 5698 5698 5698 5698 5698 5698 5698 5698 5698 5697 5697 5697 5697 5697 5697 5696
5662 5661 5662 5665 5666 5666 5667 5669 5670 5671 5671 5670 5671 5672 5672 5672 5672 5673 5674 5675 5675 5675 5676 5676 5676 5676 5676 5677 5678 5678 5678 5678 5679 5679 5679 5679 5679 5680 5680 5680 5681 5682 5682 5683 5683 5683 5683 5684 5684 5685 5686 5687 5687 5687 5687 5687 5687 5687 5687 5688 5689 5689 5690 5690 5690 5690 5692 5693 5693 5692 5692 5692 5692 5692 5692 5692 5692 5691 5691 5690 5690 5690 5690 5690 5689
5657 5655 5655 5657 5659 5659 5659 5662 5665 5666 5666 5666 5665 5665 5665 5665 5667 5668 5668 5668 5669 5669 5670 5670 5670 5670 5670 5671 5671 5672 5672 5673 5673 5673 5673 5673 5673 5673 5673 5673 5674 5674 5675 5675 5676 5677 5677 5677 5678 5678 5678 5679 5680 5680 5680 5680 5680 5681 5681 5682 5683 5683 5683 5684 5683 5684 5685 5686 5686 5686 5686 5685 5685 5685 5685 5685 5685 5684 5684 5684 5683 5683 5683 5682 5682
5650 5649 5649 5649 5651 5652 5651 5652 5656 5658 5659 5660 5660 5659 5660 5660 5661 5662 5662 5661 5662 5663 5663 5664 5664 5664 5664 5665 5665 5665 5666 5666 5667 5667 5667 5666 5666 5666 5666 5666 5666 5667 5667 5668 5669 5669 5670 5671 5672 5672 5672 5672 5673 5673 5674 5674 5674 5675 5675 5676 5676 5676 5676 5676 5676 5676 5677 5678 5679 5679 5679 5678 5678 5678 5678 5677 5677 5677 5676 5676 5676 5676 5675 5675 5674
5644 5644 5644 5643 5643 5645 5644 5644 5646 5648 5649 5651 5652 5653 5654 5655 5655 5655 5655 5655 5656 5656 5656 5657 5658 5658 5658 5658 5659 5659 5659 5660 5660 5660 5660 5660 5660 5660 5660 5660 5660 5660 5660 5661 5662 5662 5664 5665 5665 5666 5666 5666 5666 5666 5667 5667 5667 5668 5669 5669 5669 5669 5669 5669 5669 5668 5668 5669 5670 5671 5670 5670 5669 5669 5669 5669 5669 5668 5668 5667 5667 5667 5667 5667 5666
5639 5639 5639 5639 5638 5638 5638 5637 5638 5639 5639 5642 5645 5647 5647 5648 5649 5649 5648 5649 5649 5649 5650 5650 5651 5651 5651 5652 5652 5652 5653 5653 5653 5653 5653 5653 5653 5653 5653 5653 5654 5654 5654 5655 5655 5656 5657 5658 5658 5658 5658 5659 5659 5659 5659 5659 5660 5660 5661 5661 5661 5662 5662 5662 5662 5661 5661 5661 5661 5661 5661 5661 5660 5660 5660 5660 5660 5659 5659 5658 5658 5658 5658 5658 5657
5632 5632 5632 5632 5633 5633 5632 5630 5631 5631 5631 5634 5638 5640 5640 5640 5641 5641 5641 5641 5642 5642 5643 5643 5643 5644 5644 5644 5645 5645 5645 5645 5645 5645 5646 5646 5646 5646 5646 5646 5647 5647 5648 5648 5649 5651 5651 5651 5650 5650 5650 5651 5651 5652 5652 5652 5652 5652 5653 5653 5654 5654 5654 5654 5654 5654 5654 5653 5653 5652 5653 5653 5652 5652 5652 5652 5651 5650 5650 5649 5649 5649 5649 5648 5648
5624 5624 5625 5625 5626 5626 5625 5624 5625 5625 5624 5627 5630 5632 5632 5632 5633 5633 5633 5633 5634 5634 5635 5635 5636 5636 5637 5637 5637 5637 5637 5637 5637 5637 5638 5638 5639 5639 5639 5639 5640 5640 5641 5642 5644 5644 5645 5644 5644 5643 5642 5643 5643 5644 5644 5644 5644 5644 5645 5645 5646 5646 5647 5646 5646 5646 5646 5646 5646 5646 5645 5645 5645 5645 5644 5644 5643 5642 5641 5641 5641 5640 5640 5639 5638
5616 5617 5618 5618 5618 5619 5618 5618 5619 5619 5619 5620 5622 5623 5623 5623 5624 5624 5625 5625 5626 5626 5627 5628 5628 5629 5629 5630 5630 5630 5629 5630 5630 5630 5631 5631 5631 5632 5632 5632 5632 5632 5633 5635 5637 5637 5637 5637 5637 5636 5635 5635 5636 5636 5637 5636 5636 5637 5637 5637 5638 5638 5639 5639 5638 5638 5638 5638 5638 5638 5638 5638 5638 5637 5636 5636 5635 5634 5634 5633 5633 5632 5631 5631 5630
5609 5609 5611 5611 5611 5612 5612 5611 5612 5612 5611 5612 5613 5614 5614 5615 5616 5616 5617 5617 5618 5618 5619 5620 5621 5621 5622 5622 5622 5622 5622 5622 5623 5623 5624 5624 5624 5625 5625 5625 5625 5625 5626 5628 5630 5630 5630 5630 5629 5629 5629 5629 5628 5628 5629 5629 5629 5629 5629 5629 5629 5630 5631 5631 5631 5630 5630 5630 5630 5631 5630 5630 5630 5629 5628 5627 5627 5626 5626 5626 5625 5624 5623 5622 5621
5601 5601 5602 5602 5602 5604 5604 5604 5603 5603 5603 5604 5605 5606 5607 5607 5608 5609 5609 5610 5610 5611 5612 5613 5613 5614 5614 5614 5614 5614 5614 5615 5615 5616 5617 5617 5617 5617 5617 5618 5618 5618 5620 5622 5623 5623 5622 5622 5622 5622 5622 5622 5621 5621 5621 5621 5622 5622 5622 5622 5622 5623 5623 5623 5623 5623 5622 5622 5622 5623 5623 5622 5621 5620 5620 5619 5619 5619 5618 5618 5617 5616 5615 5614 5613
5593 5593 5594 5594 5594 5595 5596 5596 5595 5595 5595 5596 5596 5598 5599 5599 5600 5601 5602 5603 5603 5604 5605 5605 5605 5606 5606 5606 5607 5607 5607 5608 5608 5609 5609 5609 5609 5609 5610 5610 5610 5611 5613 5615 5616 5616 5615 5614 5614 5615 5615 5614 5614 5614 5614 5614 5615 5615 5615 5615 5616 5616 5616 5616 5616 5616 5615 5614 5614 5615 5615 5614 5613 5612 5612 5611 5611 5611 5610 5609 5608 5607 5606 5605 5605
5585 5585 5585 5585 5585 5586 5587 5587 5588 5589 5588 5588 5588 5589 5591 5592 5593 5594 5595 5596 5597 5597 5597 5597 5597 5597 5598 5599 5600 5600 5601 5601 5601 5602 5602 5602 5602 5602 5603 5603 5603 5604 5606 5608 5608 5608 5608 5608 5608 5608 5608 5607 5607 5607 5608 5608 5608 5608 5609 5609 5609 5609 5609 5609 5609 5609 5608 5607 5607 5607 5607 5606 5606 5605 5604 5604 5604 5603 5602 5601 5600 5599 5598 5597 5596
5576 5576 5576 5576 5576 5577 5578 5579 5580 5580 5580 5580 5580 5580 5582 5584 5585 5586 5587 5588 5589 5589 5589 5588 5589 5590 5591 5592 5593 5593 5594 5594 5594 5595 5595 5596 5596 5596 5596 5596 5596 5597 5598 5600 5601 5601 5601 5601 5601 5601 5600 5601 5601 5601 5602 5602 5602 5602 5602 5602 5602 5603 5603 5603 5602 5602 5601 5600 5600 5600 5600 5600 5599 5598 5598 5597 5596 5595 5594 5593 5592 5591 5589 5588 5587
5567 5567 5567 5566 5567 5568 5569 5569 5570 5570 5570 5571 5571 5572 5573 5576 5578 5579 5579 5580 5579 5580 5580 5582 5583 5584 5584 5584 5585 5586 5586 5587 5587 5588 5589 5589 5589 5589 5590 5590 5589 5590 5591 5592 5593 5594 5594 5594 5594 5594 5594 5594 5595 5595 5596 5596 5596 5596 5596 5596 5596 5596 5596 5596 5596 5596 5595 5594 5594 5593 5593 5593 5592 5592 5591 5590 5589 5588 5586 5585 5584 5582 5581 5579 5578
5558 5558 5557 5557 5558 5559 5559 5559 5560 5561 5562 5562 5563 5565 5567 5568 5569 5570 5570 5570 5571 5571 5573 5575 5576 5576 5576 5577 5577 5578 5579 5579 5580 5581 5582 5582 5582 5583 5583 5583 5583 5583 5584 5585 5586 5587 5587 5588 5588 5588 5587 5588 5588 5589 5589 5589 5590 5590 5590 5590 5590 5590 5590 5590 5590 5589 5589 5588 5588 5588 5587 5586 5586 5585 5584 5583 5581 5580 5579 5577 5575 5574 5572 5571 5569
5549 5549 5549 5549 5549 5549 5549 5550 5551 5552 5553 5554 5556 5558 5560 5560 5560 5561 5561 5562 5563 5565 5566 5566 5567 5568 5569 5570 5571 5571 5572 5572 5573 5574 5575 5575 5575 5576 5577 5577 5577 5577 5578 5579 5579 5580 5581 5581 5582 5581 5581 5582 5582 5583 5583 5583 5584 5584 5584 5585 5585 5584 5585 5584 5584 5584 5583 5583 5582 5582 5581 5580 5579 5578 5577 5576 5574 5573 5571 5570 5568 5566 5565 5563 5562
5541 5541 5540 5540 5540 5540 5541 5542 5543 5544 5545 5546 5547 5549 5550 5551 5552 5553 5554 5555 5556 5557 5558 5558 5559 5560 5561 5562 5563 5564 5564 5565 5566 5567 5568 5569 5569 5570 5570 5570 5571 5571 5572 5572 5573 5573 5574 5575 5575 5575 5575 5576 5576 5576 5577 5578 5578 5578 5579 5579 5579 5579 5579 5579 5578 5578 5578 5577 5577 5576 5575 5574 5573 5572 5571 5570 5568 5567 5565 5564 5562 5560 5558 5556 5555
5531 5531 5531 5531 5531 5531 5532 5534 5535 5536 5536 5537 5538 5539 5541 5542 5544 5546 5547 5548 5549 5549 5550 5551 5551 5553 5554 5555 5556 5556 5557 5558 5559 5561 5561 5562 5563 5563 5563 5564 5564 5565 5566 5566 5566 5567 5567 5568 5568 5569 5569 5570 5570 5571 5571 5572 5572 5572 5573 5573 5573 5573 5573 5574 5573 5573 5573 5572 5572 5571 5570 5570 5569 5568 5566 5565 5563 5562 5560 5558 5556 5554 5552 5549 5547
5521 5521 5522 5522 5522 5522 5524 5526 5527 5527 5528 5528 5530 5531 5533 5534 5536 5538 5539 5540 5540 5541 5542 5543 5544 5545 5546 5547 5548 5549 5550 5551 5552 5554 5554 5555 5556 5556 5557 5557 5558 5558 5559 5559 5559 5560 5561 5561 5562 5562 5563 5564 5564 5565 5566 5566 5566 5567 5567 5568 5568 5568 5569 5569 5569 5569 5568 5568 5568 5567 5567 5566 5565 5564 5563 5561 5559 5557 5555 5553 5551 5548 5545 5542 5539